User: anonymous
Location: Waning Moon II Observatory
(30.3730°N, 89.7620°W)
Time: 17:23:59
(UTC-05:00)
Language:

Meteor 1-21 - Orbit

View from above orbital plane
View from above orbital plane
View from above satellite
View from above satellite

Ground track
Ground track

The orbit data is extracted from the following two-line orbital elements,

1 07714U 75023A   14232.28571943  .00000014  00000-0  13224-5 0  8774
2 07714 081.2091 116.3638 0031519 278.5515 210.4861 14.07812701339998
Epoch (UTC): 20 August 2014 06:51:26
Eccentricity: 0.0031519
inclination: 81.2091°
perigee height: 844 km
apogee height: 890 km
right ascension of ascending node: 116.3638°
argument of perigee: 278.5515°
revolutions per day: 14.07812701
mean anomaly at epoch: 210.4861°
orbit number at epoch: 33999

The dashed part of the orbit path shows where the satellite is in the earth's shadow,  

DLR